Weather in Salanchik

Russia / Chuvash Republic     55°35′49″N   46°16′47″E
temp.,
°C
wind,
m/s
gust,
m/s
humid.,
%
clouds,
%
prec.,
mm/h
press.,
hPa
HPBL,
m
19 january, tue
tue1900:00−20ene0195100 0.0 102052
03:00−20ene1195100 0.0 101948
06:00−21ne1195100 0.0 101823
09:00−20nne1194100 0.0 101782
12:00−18n1294100 0.2 1017266
15:00−17nnw2396100 0.7 1016295
18:00−18nw1298100 0.4 101583
21:00−18wnw1398100 0.9 1015106
20 january, wed
wed2000:00−19wnw229899 0.3 101578
03:00−18wnw2498100 0.7 1015165
06:00−18w2298100 0.3 101458
09:00−18w239798 0.5 1015118
12:00−15w249498 0.1 1016295
15:00−14wsw269499 0.1 1016322
18:00−16w249797 0.1 101788
21:00−15wsw269794 0.1 1018180
21 january, thu
thu2100:00−15wsw279686 0.1 1018207
03:00−14w389589 0.3 1019269
06:00−16wsw389697 0.1 1019257
09:00−15wsw389598 0.2 1020327
12:00−14wsw3793100 0.1 1019314
15:00−13sw3891100 0.1 1018343
18:00−13ssw4889100 0.0 1016335
21:00−12ssw41095100 1.1 1013489
22 january, fri
fri2200:00−11wsw3995100 2.2 1012610
03:00−12wsw2596100 2.6 1012131
06:00−14wnw1197100 0.1 101220
09:00−15sse019697 0.1 101420
12:00−10sse129399 0.0 1014165
15:00−9se239598 0.1 1014187
18:00−9ese259699 0.5 1014149
21:00−9ese369699 0.9 1015167
23 january, sat
sat2300:00−8ese3695100 0.2 1015214
03:00−6se3796100 0.7 1015205
06:00−2s3698100 0.4 1014196
09:00+1s4999100 1.0 1014348
12:00+1sw51199100 0.5 1013516
15:00+1sw41097100 0.5 1013596
18:00+1sw41095100 0.0 1013605
21:00+1ssw41096100 0.0 1013415